リニア彗星

252P/LINEAR (2016)

English version
Home page
Updated on March 25, 2017

---------------------------------------------------------------------

・ プロフィール

・ 写真集

・ 軌道要素

Epoch 2016 Apr. 2.0 TT = JDT 2457480.5
T 2016 Mar. 15.27048 TT                                 MPCW
q   0.9960715            (2000.0)            P               Q
n   0.18517038     Peri.  343.31458     -0.99409647     -0.10291243
a   3.0485152      Node   190.95145     +0.10805947     -0.96758658
e   0.6732601      Incl.   10.42289     -0.00976508     -0.23061925
P   5.32
From 1382 observations 2011 June 9-2016 July 31, mean residual 0".8.
     Nongravitational parameters A1 = +0.73, A2 = -0.1285.

・ 星図

・ 光度変化

        m1 = 18.0 + 5 logΔ +  10.0 log r          [   ,-17]  (              〜2016年 2月27日)
        m1 = 10.5 + 5 logΔ + 170   log r(t - 18)  [-17, 16]  (2016年 2月27日〜2016年 3月31日)
        m1 = 10.0 + 5 logΔ +  30   log r(t - 30)  [ 16,   ]  (2016年 3月31日〜              )

        ※ 灰色の曲線は、m1 = 18.0 + 5 logΔ + 10.0 log r の光度曲線です。

---------------------------------------------------------------------

軌道要素はM.P.E.C. 2017-A77に掲載されたものです。
星図はステラナビゲータ Ver.8 (アストロアーツ) で作成したものです。
光度グラフはComet for Windowsで作成したものです。

---------------------------------------------------------------------

Copyright(C) Seiichi Yoshida (comet@aerith.net). All rights reserved.